Other Public Products
Issued by NWS Grand Forks, ND

Home | Current Version | Previous Version | Text Only | Print | Product List | Glossary On
Versions: 1 2 3 4 5 6 7 8 9 10 11 12 13 14 15 16 17 18 19 20 21 22 23 24 25 26 27 28 29 30 31 32 33 34 35 36 37 38 39 40 41 42 43 44 45 46 47 48 49 50
073
FPUS83 KFGF 231731
OPUFGF
PRAIRIE TO PINES WEATHER ROUNDUP
NATIONAL WEATHER SERVICE EASTERN NORTH DAKOTA/GRAND FORKS ND
1200 PM CDT SUN APR 23 2017

 **SATELLITE DATA USED TO AUGMENT SKY COVER AT AUTOMATED STATIONS**
 *****  WEATHER ACROSS EASTERN NORTH DAKOTA  *****

CITY           SKY/WX    TMP DP  RH WIND       PRES   REMARKS
GRAND FORKS    LGT SNOW  36  24  62 E15G23    30.19F
GRAND FORKS AF LGT RAIN  32  27  80 SE15      30.17F WCI  22
GRAND CITY NWS NOT AVBL
BUXTON           N/A     33  32  96 NE13        N/A  WCI  24
DEVILS LAKE    LGT SNOW  28  27  93 E16       30.13F VSB 3/4 WCI  17
FARGO          CLOUDY    38  32  79 NE17G26   30.09F
WAHPETON ARPT  CLOUDY    45  36  70 E13       30.04F
$$

 *****  WEATHER ACROSS CENTRAL AND WESTERN NORTH DAKOTA  *****

CITY           SKY/WX    TMP DP  RH WIND       PRES   REMARKS
JAMESTOWN      CLOUDY    35  31  85 E22G30    30.04F WCI  23
BISMARCK       CLOUDY    39  32  76 E20G29    29.99F
MINOT          LGT SNOW  31  27  85 E16G22    30.06F WCI  20
MINOT AFB      MIX PCPN  30  28  93 E21G26    30.06F FOG     WCI  17
GARRISON         N/A     28  26  92 E21G30    30.02F WCI  15
WILLISTON      CLOUDY    32  25  75 E17       30.01S WCI  21
DICKINSON      CLOUDY    32  27  81 E18       29.90F WCI  20
HETTINGER      CLOUDY    34  32  92 E14       29.89F WCI  25
$$

 *****  OTHER OBSERVATIONS NORTHEAST NORTH DAKOTA  *****

CITY           SKY/WX    TMP DP  RH WIND       PRES   REMARKS
WALHALLA       NOT AVBL
LANGDON        CLOUDY    34  16  47 E16       30.17R WCI  23
CAVALIER       FAIR      36  16  44 E13       30.21S
GRAFTON        FAIR      36  14  41 E16       30.21F
CANDO          NOT AVBL
FORT TOTTEN    NOT AVBL
ROLLA          PTSUNNY   32   9  37 E21       30.14F WCI  20
RUGBY          NOT AVBL
 ***** THE ABOVE OBSERVATIONS ARE NON NWS ARE NOT QUALITY
        CONTROLLED AND MAY MIS-REPORT RAIN FOR SNOW...
$$

 *****  OTHER OBSERVATIONS SOUTHEAST NORTH DAKOTA *****

CITY           SKY/WX    TMP DP  RH WIND       PRES   REMARKS
COOPERSTOWN    CLOUDY    32  30  93 E25       30.09F WCI  19
VALLEY CITY    FLURRIES  34  34 100 E17G28    30.07F WCI  23
OAKES          NOT AVBL
GWINNER        CLOUDY    43  37  81 MISG      30.01F
SHEYENNE NWR     N/A     42  34  74 E15       29.95S
BUFFALO          N/A     34  29  81 S22         N/A  WCI  23
WYNDMERE         N/A     46  39  76 E12         N/A
 ***** THE ABOVE OBSERVATIONS ARE NON NWS ARE NOT QUALITY
       CONTROLLED AND MAY MIS-REPORT RAIN FOR SNOW...
$$

  *****  WEATHER ACROSS NORTHERN MINNESOTA  *****

CITY           SKY/WX    TMP DP  RH WIND       PRES   REMARKS
FLAG ISLAND    FAIR      30   9  40 N5        30.24F
WARROAD        FAIR      32  16  51 NE15      30.24S WCI  22
ROSEAU         FAIR      34  18  51 E16       30.22S WCI  23
HALLOCK        FAIR      37  14  38 E15       30.20F
THF RVR FALLS  CLOUDY    34  12  40 E14       30.20F WCI  25
HALSTAD          N/A     33  28  85 E20         N/A  WCI  21
FOSSTON        LGT SNOW  30  27  86 NE12      30.16F VSB 1   WCI  21
BAUDETTE       PTSUNNY   33  10  38 NE12      30.21F WCI  24
WASKISH        CLOUDY    34  25  69 E10       30.20F
CROOKSTON      LGT SNOW  34  25  69 E15       30.19F WCI  24
$$
  *****  WEATHER ACROSS CENTRAL AND WEST MINNESOTA  *****

CITY           SKY/WX    TMP DP  RH WIND       PRES   REMARKS
BEMIDJI        LGT SNOW  30  28  92 NE10      30.17F VSB 3/4 WCI  21
PARK RAPIDS    CLOUDY    33  27  78 NE12      30.12F WCI  24
WADENA         CLOUDY    39  32  75 E13G20    30.08F
DETROIT LAKES  PTSUNNY   37  32  81 E14       30.08F
MOORHEAD       CLOUDY    39  34  81 NE15      30.10F
FERGUS FALLS   PTSUNNY   46  36  66 E15G21    30.04F
ELBOW LAKE     FAIR      50  39  66 SE16G22   30.03F
MORRIS MN      FAIR      57  43  58 SE16      29.99F
STAPLES        CLOUDY    43  30  61 E9G17     30.10F
WHEATON        FAIR      55  39  54 E16       30.01F
$$
  *****  WEATHER ELSEWHERE ACROSS MINNESOTA  *****

CITY           SKY/WX    TMP DP  RH WIND       PRES   REMARKS
DULUTH         LGT SNOW  33  32  96 E10       30.16S FOG     WCI  25
INTRNTL FALLS  FAIR      33  13  43 N7        30.22F
ELY            FAIR      34  19  55 N5        30.19F
CLOQUET        CLOUDY    34  30  86 E8        30.16F
BRAINERD       CLOUDY    40  32  73 NE13      30.12F
HIBBING        CLOUDY    32  23  69 NE9       30.18F WCI  24
ALEXANDRIA     PTSUNNY   49  38  65 E18       30.05F
SAINT CLOUD    FAIR      52  40  63 E9G17     30.07F
MINNEAPOLIS    FAIR      60  42  51 VRB3      30.06F
$$

  *****  WEATHER ACROSS SOUTH DAKOTA  *****

CITY           SKY/WX    TMP DP  RH WIND       PRES   REMARKS
SIOUX FALLS    PTSUNNY   65  40  39 S18G24    30.00F
BROOKINGS      FAIR      65  34  31 SW16      29.97F
WATERTOWN      FAIR      61  36  39 SW14      29.96F
HURON          FAIR      64  34  32 SW21G30   29.93F
SISSETON         N/A     54  43  66 SE9       29.98F
ABERDEEN       FAIR      55  37  50 E10G18    29.95F
MITCHELL       FAIR      66  32  28 SW18G28   29.95F
PIERRE         FAIR      66  37  34 S16G26    29.83F
MOBRIDGE       FAIR      48  35  60 E22       29.88F
RAPID CITY     FAIR      58  40  51 N6        29.80S
$$

  *****  SOME WEATHER IN NEARBY STATES *****

CITY           SKY/WX    TMP DP  RH WIND       PRES   REMARKS
GLASGOW MT     CLOUDY    37  32  82 E18G28    29.88S
GREAT FALLS MT LGT RAIN  43  41  93 NW5       29.79S FOG
CHEYENNE WY    FAIR      60  25  26 S16       29.94F
SCOTTSBLUFF NE FAIR      64  36  35 SE14      29.88F
OMAHA NE       FAIR      66  30  26 S9        30.12F
DES MOINES IA  FAIR      68  32  26 S10       30.13F
DAVENPORT IA   FAIR      67  32  27 N6        30.13F
CHICAGO IL     FAIR      67  27  22 CALM      30.10F
EAU CLAIRE WI  FAIR      58  40  51 VRB3      30.08F
LA CROSSE WI   FAIR      69  38  32 W3        30.07F
$$

  *****  SOME NATIONAL WEATHER *****

CITY           SKY/WX    TMP DP  RH WIND       PRES   REMARKS
LA GUARDIA NY  FAIR      61  36  39 NE3       30.12S
RALEIGH NC     LGT RAIN  54  52  93 NE12      30.02F
ATLANTA GA     LGT RAIN  65  64  97 SE10      29.80F FOG
NEW ORLEANS LA PTSUNNY   63  56  78 NW10G18   29.94F
OKLAHOMA CITY  FAIR      63  36  36 N6        30.19F
ALBUQUERQUE NM FAIR      57  32  38 SW14      30.20F
SALT LAKE CITY PTSUNNY   61  41  47 NW9       29.84F
LOS ANGELES CA FAIR      67  56  67 W3        29.89R
BOISE ID       FAIR      53  43  68 NW7       29.85F
SEATTLE WA     CLOUDY    52  44  74 SE7       29.89F
$$

*** WEATHER ACROSS MANITOBA...SASKATCHEWAN AND ONTARIO ***
                ***ONTARIO***

CITY           SKY/WX    TMP DP  RH WIND       PRES   REMARKS
GERALDTON      PTSUNNY   27   9  46 NW10      30.20S WCI  17
THUNDER BAY    PTSUNNY   37  12  35 CALM      30.22F
SIOUX LOOKOUT  PTSUNNY   30   7  37 VRB5      30.23F
TORONTO        MOSUNNY   64  32  29 W9        30.06F
BIG TROUT LK   CLOUDY    16   3  57 NW17G23   30.25S WCI   0
PICKLE LAKE    PTSUNNY   21   5  49 W3        30.22F
DRYDEN         PTSUNNY   30   9  40 VRB7      30.23F WCI  23
KENORA         PTSUNNY   30   7  37 E3        30.25S
$$
                *** MANITOBA***

CITY           SKY/WX    TMP DP  RH WIND       PRES   REMARKS
BRANDON        PTSUNNY   36  12  38 E14G22    30.19F
DAUPHIN        SUNNY     39  16  38 VRB5      30.22F
ISLAND LAKE    MOSUNNY   21   3  45 VRB13     30.29F WCI   9
PILOT MOUND      N/A     34  10  37 E17         N/A  WCI  23
THE PAS        MOSUNNY   25   7  46 N8        30.28F WCI  16
THOMPSON       MOSUNNY   18  -4  38 NW12      30.30F WCI   5
WINNIPEG       PTSUNNY   36  18  48 VRB12     30.25F
LYNN LAKE      MOSUNNY   16   0  48 VRB6      30.28S WCI   7
CHURCHILL      MOSUNNY    1  -8  66 NW17      30.34R WCI -19
GILLAM         PTSUNNY   10  -6  48 NW12      30.34R WCI  -4
$$
                ***SASKATCHEWAN***

CITY           SKY/WX    TMP DP  RH WIND       PRES   REMARKS
ESTEVAN        CLOUDY    30  16  55 E25G32    30.06F WCI  16
KINDERSLEY     FLURRIES  34  34 100 E20       29.88F WCI  22
LLOYDMINSTER   LGT SNOW  34  27  75 E22       29.95F WCI  22
PRINCE ALBERT  CLOUDY    37  19  48 SE12G17   30.11F
REGINA         CLOUDY    36  19  51 SE20G26   30.04F
YORKTON        SUNNY     37  10  32 SE18G24   30.14F



USA.gov is the U.S. government's official web portal to all federal, state and local government web resources and services.